Flag for Canada Weather past 2 weeks in Hamilton, Ontario, Canada

Now
63 °F

Passing clouds.


Feels Like: 63 °F
Forecast: 54 / 71 °F
Wind: 16 mph from Northwest

Location: Hamilton Airport

Current Time: Aug 27, 2014 at 9:48:52 PM

Latest Report: Aug 27, 2014 at 9:00 PM


Visibility: 15 mi

Pressure: 30.06 "Hg

Humidity: 68%

Dew point: 52 °F

Location of HamiltonLocation

Historic Weather in Hamilton — Graph

°F

Hamilton temperature yesterday

Maximum temperature yesterday: 84 °F (at 2:00 PM)
Minimum temperature yesterday: 64 °F (at 1:00 AM)
Average temperature yesterday: 73 °F

Past Weeks' High & Low Weather Summary

 TemperatureHumidityPressure
High84 °F (Aug 26, 2:00 PM)100% (Aug 17, 3:00 AM)30.18 "Hg (Aug 17, 3:00 AM)
Low50 °F (Aug 15, 12:00 AM)43% (Aug 15, 4:00 PM)29.70 "Hg (Aug 12, 8:00 PM)
Average65 °F82%29.97 "Hg
* Reported Aug 12 8:00 PM — Aug 27 8:00 PM, Hamilton, Weather by CustomWeather, © 2014

Note: Actual official high and low records may vary slightly from our data, if they occured in-between our weather recording intervals... More about our weather records

Advertising

Hamilton weather history for previous 24 hours

 ConditionsComfort  
Time TempWeatherWind HumidityBarometerVisibility
8:00 PM
Aug 27
66 °FPassing clouds.10 mph64%30.05 "Hg12 mi
7:00 PM70 °FPassing clouds.12 mph57%30.03 "Hg8 mi
6:00 PM72 °FPassing clouds.13 mph57%30.04 "Hg8 mi
5:00 PM73 °FScattered clouds.13 mph57%30.03 "Hg10 mi
4:00 PM73 °FScattered clouds.13 mph57%30.03 "Hg10 mi
3:00 PM75 °FPartly sunny.9 mph50%30.03 "Hg8 mi
1:00 PM73 °FPassing clouds.6 mph53%30.05 "Hg15 mi
12:00 PM72 °FPassing clouds.7 mph53%30.06 "Hg15 mi
10:00 AM68 °FPassing clouds.7 mph64%30.07 "Hg15 mi
9:00 AM66 °FPassing clouds.7 mph73%30.07 "Hg15 mi
8:00 AM64 °FPassing clouds.7 mph83%30.06 "Hg15 mi
7:00 AM63 °FPassing clouds.5 mph88%30.05 "Hg15 mi
6:00 AM64 °FPassing clouds.5 mph88%30.05 "Hg15 mi
5:00 AM66 °FPassing clouds.5 mph83%30.04 "Hg15 mi
4:00 AM68 °FPassing clouds.13 mph78%30.03 "Hg8 mi
3:00 AM72 °FMostly cloudy.9 mph94%30.01 "Hg9 mi
2:00 AM72 °FMostly cloudy.5 mph94%30.01 "Hg11 mi
1:00 AM72 °FPartly cloudy.6 mph94%30.00 "Hg15 mi
12:00 AM72 °FPassing clouds.5 mph94%29.99 "Hg15 mi
11:00 PM
Aug 26
72 °FPartly cloudy.3 mph88%29.98 "Hg15 mi
10:00 PM73 °FPartly cloudy.6 mph83%29.99 "Hg15 mi
9:00 PM73 °FOvercast.7 mph83%29.99 "Hg15 mi
Weather by CustomWeather, © 2014

See weather overviewHow to use our weather pages